Content
SEND FEEDBACK

Daily
Averages
Monthly
Summary
United States of America

PUT IN BAY, OHIO


Home > North America > United States > Ohio
Elevation: 561 feet     Latitude: 41 39N     Longitude: 082 48W

WEATHER
 
SELECT A DAY
Number of Records: 123,151;   Date Range: 12/10/00 - 9/21/14
 
SHARE

PRINT THIS DATA

[ ← Previous Day ]
WEATHER ALMANAC - JANUARY 12, 2014
[ Next Day → ]
[ °C ]   °F
Weather ElementAverageHighLow
Temperature33.8 °F35.8 °F (11:00 pm)33 °F (7:00 am)
Dewpoint29.4 °F32.9 °F (11:00 pm)27.7 °F (5:00 am)
Humidity83.1 %89 % (11:00 pm)71 % (1:00 pm)
Barometer29.85 in29.96 in (11:00 am)29.66 in (1:00 am)
Wind Speed11.7 mph17.3 mph (9:00 pm)
Wind Gust24.2 mph (11:00 am)
Weather ElementAverage
Wind DirectionWSW (234.8 °)

Weather ElementTotal
Precipitation---
Heating Degree Days30.6 (Base 65)
Averaged from 27 records on January 12, 2014
WEATHER CONDITIONS BREAKOUT
WIND DIRECTION BREAKOUT
WEATHER BY HOUR - JANUARY 12, 2014
[ °C ]   °F
Local TimeTemperatureDewpointHumidityBarometerVisibilityWind DirectionWind SpeedGust SpeedPrecipitationEventsConditions
1:00 AM34.0 °F29.0 °F77 %29.66 inWest (270°)11.5 mph
1:00 AM33.6 °F29.5 °F85 %29.66 inWest (270°)11.5 mph
2:00 AM33.6 °F29.7 °F85 %29.70 inWest (270°)10.4 mph
3:00 AM33.4 °F30.0 °F87 %29.73 inWest (270°)10.4 mph
4:00 AM33.6 °F28.9 °F83 %29.75 inWNW (290°)10.4 mph17.3 mph
5:00 AM33.6 °F27.7 °F79 %29.78 inWNW (290°)10.4 mph21.9 mph
6:00 AM33.6 °F28.2 °F81 %29.81 inWest (280°)9.2 mph
7:00 AM33.0 °F29.0 °F80 %29.84 inWest (260°)6.9 mph
7:00 AM33.1 °F29.1 °F85 %29.84 inWest (260°)6.9 mph
8:00 AM33.3 °F29.5 °F86 %29.86 inWSW (250°)8.1 mph
9:00 AM33.4 °F29.3 °F85 %29.90 inWSW (250°)8.1 mph
10:00 AM33.8 °F29.1 °F83 %29.93 inWSW (240°)10.4 mph
11:00 AM33.8 °F28.0 °F79 %29.96 inWSW (250°)15.0 mph24.2 mph
12:00 PM33.8 °F28.0 °F79 %29.96 inWSW (250°)12.7 mph
1:00 PM34.0 °F28.0 °F71 %29.93 inSW (230°)13.8 mph
1:00 PM34.0 °F28.0 °F79 %29.93 inSW (230°)13.8 mph19.6 mph
2:00 PM33.4 °F28.6 °F82 %29.91 inSW (220°)15.0 mph21.9 mph
3:00 PM33.4 °F29.3 °F85 %29.92 inSW (220°)12.7 mph18.4 mph
4:00 PM33.8 °F29.5 °F84 %29.91 inSW (220°)9.2 mph
5:00 PM33.8 °F29.7 °F85 %29.94 inSSW (210°)9.2 mph
6:00 PM33.3 °F29.8 °F87 %29.92 inSouth (190°)11.5 mph
7:00 PM34.0 °F30.0 °F81 %29.90 inSouth (180°)13.8 mph
7:00 PM33.8 °F30.4 °F87 %29.90 inSouth (180°)13.8 mph20.7 mph
8:00 PM33.6 °F30.2 °F87 %29.88 inSouth (180°)15.0 mph
9:00 PM34.2 °F30.6 °F87 %29.84 inSouth (180°)17.3 mph
10:00 PM34.7 °F30.9 °F86 %29.83 inSouth (190°)16.1 mph21.9 mph
11:00 PM35.8 °F32.9 °F89 %29.83 inSSW (210°)11.5 mph
Hourly data recorded from CXHA, located miles away from Put In Bay, Ohio







STORIES FROM OUR PARTNERS